Погода в Кензино

Россия / Рязанская область     53°45′50″N   40°22′44″E
темп.,
°C
ветер,
м/с
пор.,
м/с
влажн.,
%
обл.,
%
осадки,
мм/ч
давл.,
гПа
погр.,
м
13 мая, чт
чт1300:00+7юв339420 0.0 102042
03:00+7вюв35955 0.0 102081
06:00+8в379277 0.0 1020172
09:00+13вюв4676100 0.0 1019343
12:00+16в4869100 0.0 1017472
15:00+19ю33565 0.0 10171065
18:00+18ююв246818 0.0 1016171
21:00+14юв3374100 0.0 101729
14 мая, пт
пт1400:00+12ююв348157 0.0 101751
03:00+12ююв3583100 0.0 101883
06:00+12юв3784100 0.2 1018144
09:00+18юв586961 0.2 1017415
12:00+22юв5759100 0.0 1017963
15:00+24юв6960100 0.0 10151478
18:00+21ю5973100 0.6 1014208
21:00+18ююв61384100 1.5 1013237
15 мая, сб
сб1500:00+18юв71487100 0.0 1012254
03:00+16ююв51289100 0.0 1012232
06:00+16ююв499082 0.0 1011183
09:00+20ююв687782 0.0 1011465
12:00+22ююз6971100 0.3 1012955
15:00+23ююз7116420 0.8 10121487
18:00+21ююз47770 1.6 1012683
21:00+17ююз338696 1.8 101328
16 мая, вс
вс1600:00+15юз33880 0.0 101440
03:00+14ююз33866 0.0 101532
06:00+15ююз238381 0.0 101564
09:00+19ююз3470100 0.0 1015382
12:00+22юз3457100 0.0 10151020
15:00+23юз235079 0.0 10151558
18:00+23сз016295 0.0 101460
21:00+17в227993 1.3 101513
17 мая, пн
пн1700:00+16всв348520 0.5 101560
03:00+14всв489365 0.5 1015150
06:00+15в499155 0.0 1015182
09:00+21вюв577239 0.0 1015426
12:00+25юв575230 0.0 1014804
15:00+27юв5104844 0.0 10131999
18:00+24юв496491 0.0 1013274
21:00+19вюв41273100 0.0 1013200